Weather History for Kerrville, TX

Change the Weather History Date:

Sunday, September 8, 2013

  Actual Average (KHDO) Record (KHDO)
Temperature  
Mean Temperature 80 °F -  
Max Temperature 89 °F 89 °F 98 °F (2011)
Min Temperature 71 °F 68 °F 57 °F (2004)
Cooling Degree Days 14    
Growing Degree Days 30 (Base 50)    
Moisture  
Dew Point 69 °F    
Average Humidity 83    
Maximum Humidity 94    
Minimum Humidity 48    
Precipitation  
Precipitation 1.50 in - - ()
Sea Level Pressure  
Sea Level Pressure 29.99 in    
Wind  
Wind Speed 4 mph (ESE)    
Max Wind Speed 14 mph    
Max Gust Speed 28 mph    
Visibility 9 miles    
Events Rain , Thunderstorm    
Averages and records for this station are not official NWS values.
T = Trace of Precipitation, MM = Missing Value Source: NWS Daily Summary

Daily Weather History Graph

Daily Weather History Graph

Search for Another Location

Airport:

Trip Planner

Search our weather history database for the weather conditions in past years. The results will help you decide how hot, cold, wet, or windy it might be!

Date:

Astronomy

Sep. 08, 2013 Rise Set
Actual Time 7:17 AM CDT 7:49 PM CDT
Civil Twilight 6:53 AM CDT 8:14 PM CDT
Nautical Twilight 6:24 AM CDT 8:42 PM CDT
Astronomical Twilight 5:56 AM CDT 9:11 PM CDT
Moon 10:18 AM CDT (9/8) 9:46 PM CDT (9/8)
Length of Visible Light 13h 20m
Length of Day
12h 32m
Waxing Crescent, 11% of the Moon is Illuminated
Sep 8
Waxing Crescent
Sep 12
First Quarter
Sep 19
Full
Sep 26
Last Quarter
Oct 4
New

Hourly Weather History & Observations

Time (CDT) Temp. Heat Index Dew Point Humidity Pressure Visibility Wind Dir Wind Speed Gust Speed Precip Events Conditions
12:15 AM 75.4 °F - 67.5 °F 76% 30.00 in 10.0 mi Calm Calm - N/A   Clear
12:35 AM 73.9 °F - 66.7 °F 78% 30.02 in 10.0 mi ESE 4.6 mph - N/A   Clear
12:55 AM 74.7 °F - 67.5 °F 78% 30.02 in 10.0 mi East 5.8 mph - N/A   Mostly Cloudy
1:15 AM 76.5 °F - 68.9 °F 77% 30.01 in 10.0 mi East 8.1 mph - N/A   Overcast
1:35 AM 76.5 °F - 69.4 °F 79% 30.01 in 10.0 mi East 5.8 mph - N/A   Mostly Cloudy
1:55 AM 73.9 °F - 68.0 °F 82% 30.01 in 10.0 mi Calm Calm - N/A   Scattered Clouds
2:15 AM 73.9 °F - 68.9 °F 84% 30.01 in 10.0 mi East 4.6 mph - N/A   Clear
2:35 AM 73.9 °F - 69.6 °F 86% 30.01 in 10.0 mi East 5.8 mph - N/A   Mostly Cloudy
2:55 AM 73.9 °F - 69.8 °F 87% 30.01 in 10.0 mi East 4.6 mph - N/A   Mostly Cloudy
3:15 AM 72.7 °F - 68.9 °F 88% 30.00 in 10.0 mi East 3.5 mph - N/A   Scattered Clouds
3:35 AM 71.6 °F - 68.0 °F 88% 30.00 in 10.0 mi Calm Calm - N/A   Clear
3:55 AM 71.8 °F - 68.7 °F 90% 30.00 in 10.0 mi East 3.5 mph - N/A   Mostly Cloudy
4:15 AM 72.0 °F - 68.9 °F 90% 30.00 in 10.0 mi East 4.6 mph - N/A   Mostly Cloudy
4:35 AM 72.7 °F - 69.4 °F 90% 30.00 in 10.0 mi East 4.6 mph - N/A   Mostly Cloudy
4:55 AM 72.5 °F - 69.8 °F 91% 30.00 in 10.0 mi East 5.8 mph - N/A   Mostly Cloudy
5:15 AM 72.0 °F - 69.1 °F 91% 30.00 in 10.0 mi Calm Calm - N/A   Scattered Clouds
5:35 AM 71.6 °F - 68.9 °F 91% 29.99 in 10.0 mi Calm Calm - N/A   Scattered Clouds
5:55 AM 71.6 °F - 68.9 °F 91% 29.98 in 10.0 mi NW 3.5 mph - N/A   Scattered Clouds
6:15 AM 71.6 °F - 68.9 °F 91% 29.99 in 10.0 mi East 3.5 mph - N/A   Mostly Cloudy
6:35 AM 71.6 °F - 69.1 °F 92% 30.00 in 10.0 mi East 3.5 mph - N/A   Overcast
6:55 AM 72.0 °F - 69.3 °F 91% 30.00 in 10.0 mi East 3.5 mph - N/A   Mostly Cloudy
7:15 AM 71.8 °F - 69.1 °F 91% 30.00 in 10.0 mi Calm Calm - N/A   Mostly Cloudy
7:35 AM 71.6 °F - 68.9 °F 91% 30.01 in 10.0 mi East 4.6 mph - N/A   Scattered Clouds
7:55 AM 71.6 °F - 68.9 °F 91% 30.02 in 10.0 mi East 3.5 mph - N/A   Scattered Clouds
8:15 AM 71.8 °F - 69.1 °F 91% 30.02 in 10.0 mi East 5.8 mph - N/A   Mostly Cloudy
8:35 AM 72.7 °F - 69.8 °F 91% 30.02 in 10.0 mi East 4.6 mph - N/A   Overcast
8:55 AM 73.9 °F - 70.7 °F 90% 30.03 in 10.0 mi East 4.6 mph - N/A   Overcast
9:15 AM 76.3 °F - 71.8 °F 86% 30.02 in 10.0 mi East 3.5 mph - N/A   Overcast
9:35 AM 76.5 °F - 70.5 °F 82% 30.02 in 10.0 mi SE 3.5 mph - N/A   Mostly Cloudy
9:55 AM 76.8 °F - 69.6 °F 78% 30.03 in 10.0 mi Calm Calm - N/A   Mostly Cloudy
10:15 AM 79.0 °F - 68.7 °F 71% 30.03 in 10.0 mi South 3.5 mph - N/A   Mostly Cloudy
10:35 AM 81.5 °F 84.9 °F 69.4 °F 67% 30.03 in 10.0 mi ESE 6.9 mph - N/A   Overcast
10:55 AM 81.5 °F 84.6 °F 68.9 °F 65% 30.03 in 10.0 mi SSE 5.8 mph - N/A   Mostly Cloudy
11:15 AM 83.1 °F 86.1 °F 67.8 °F 60% 30.02 in 10.0 mi ESE 9.2 mph - N/A   Scattered Clouds
11:35 AM 82.0 °F 84.9 °F 67.6 °F 62% 30.02 in 10.0 mi SSE 8.1 mph - N/A   Mostly Cloudy
11:55 AM 82.8 °F 85.3 °F 67.3 °F 59% 30.02 in 10.0 mi South 5.8 mph - N/A   Mostly Cloudy
12:15 PM 84.2 °F 86.6 °F 66.6 °F 55% 30.01 in 10.0 mi SSE 9.2 mph - N/A   Mostly Cloudy
12:35 PM 83.1 °F 85.7 °F 66.7 °F 58% 30.01 in 10.0 mi SSE 9.2 mph - N/A   Mostly Cloudy
12:55 PM 84.4 °F 86.6 °F 66.2 °F 54% 30.00 in 10.0 mi SE 8.1 mph - N/A   Mostly Cloudy
1:15 PM 85.1 °F 87.1 °F 65.7 °F 52% 29.99 in 10.0 mi ESE 9.2 mph - N/A   Mostly Cloudy
1:35 PM 84.6 °F 86.6 °F 65.8 °F 53% 29.98 in 10.0 mi East 8.1 mph - N/A   Overcast
1:55 PM 88.7 °F 91.5 °F 66.7 °F 48% 29.97 in 10.0 mi SSE 11.5 mph - N/A   Mostly Cloudy
2:15 PM 82.9 °F 86.3 °F 68.9 °F 62% 29.97 in 5.0 mi ENE 9.2 mph - 0.01 in Rain Heavy Rain
2:35 PM 79.0 °F - 68.0 °F 69% 29.97 in 2.0 mi Calm Calm - 0.10 in Rain Heavy Rain
2:55 PM 81.5 °F 85.1 °F 70.2 °F 68% 29.95 in 10.0 mi WSW 5.8 mph - 0.11 in   Mostly Cloudy
3:15 PM 82.0 °F 85.7 °F 69.6 °F 66% 29.95 in 4.0 mi SW 13.8 mph - 0.04 in Rain Heavy Rain
3:35 PM 76.5 °F - 71.6 °F 85% 29.96 in 5.0 mi ENE 12.7 mph 20.7 mph 0.12 in Rain , Thunderstorm Light Thunderstorms and Rain
3:55 PM 71.6 °F - 68.5 °F 90% 29.98 in 0.2 mi SE 13.8 mph 27.6 mph 1.01 in Rain , Thunderstorm Heavy Thunderstorms and Rain
4:15 PM 71.6 °F - 69.3 °F 92% 29.97 in 2.5 mi SSE 4.6 mph - 0.35 in Rain , Thunderstorm Thunderstorms and Rain
4:35 PM 71.6 °F - 68.9 °F 91% 29.98 in 7.0 mi NE 5.8 mph - 0.37 in Rain , Thunderstorm Thunderstorms and Rain
4:55 PM 72.7 °F - 70.0 °F 91% 29.97 in 10.0 mi East 3.5 mph - 0.37 in Thunderstorm Drizzle
5:15 PM 72.7 °F - 69.4 °F 90% 29.96 in 10.0 mi Calm Calm - N/A   Light Drizzle
5:35 PM 72.3 °F - 69.8 °F 92% 29.97 in 10.0 mi North 4.6 mph - N/A Rain , Thunderstorm Light Thunderstorms and Rain
5:55 PM 72.7 °F - 70.2 °F 92% 29.96 in 10.0 mi NNW 3.5 mph - N/A   Clear
6:15 PM 72.5 °F - 70.3 °F 93% 29.96 in 10.0 mi NW 4.6 mph - 0.01 in   Light Drizzle
6:35 PM 71.6 °F - 69.4 °F 93% 29.95 in 10.0 mi Calm Calm - 0.01 in   Light Drizzle
6:55 PM 72.3 °F - 70.0 °F 92% 29.95 in 10.0 mi Calm Calm - 0.01 in   Clear
7:15 PM 72.7 °F - 70.7 °F 93% 29.96 in 10.0 mi WNW 3.5 mph - N/A   Clear
7:35 PM 72.5 °F - 70.7 °F 94% 29.97 in 10.0 mi Calm Calm - N/A   Clear
7:55 PM 72.5 °F - 70.5 °F 93% 29.97 in 7.0 mi Calm Calm - N/A   Clear
8:15 PM 71.6 °F - 69.4 °F 93% 29.97 in 10.0 mi Calm Calm - N/A   Clear
8:35 PM 71.8 °F - 70.0 °F 94% 29.97 in 10.0 mi ESE 3.5 mph - N/A   Scattered Clouds
8:55 PM 71.6 °F - 69.8 °F 94% 29.98 in 10.0 mi Calm Calm - N/A   Scattered Clouds
9:15 PM 71.6 °F - 69.4 °F 93% 29.98 in 10.0 mi Calm Calm - N/A   Clear
9:35 PM 71.6 °F - 69.8 °F 94% 29.98 in 10.0 mi Calm Calm - N/A   Clear
9:55 PM 71.6 °F - 69.4 °F 93% 29.98 in 10.0 mi SE 3.5 mph - N/A   Clear
10:15 PM 71.6 °F - 69.3 °F 92% 29.99 in 10.0 mi ESE 4.6 mph - N/A   Clear
10:35 PM 71.6 °F - 68.9 °F 91% 29.99 in 10.0 mi ESE 4.6 mph - N/A   Clear
10:55 PM 71.6 °F - 68.5 °F 90% 29.99 in 10.0 mi Calm Calm - N/A   Clear
11:15 PM 71.6 °F - 68.9 °F 91% 29.99 in 10.0 mi Calm Calm - N/A   Clear
11:35 PM 71.6 °F - 68.9 °F 91% 29.99 in 10.0 mi Calm Calm - N/A   Scattered Clouds
11:55 PM 71.6 °F - 68.2 °F 89% 29.99 in 10.0 mi Calm Calm - N/A   Scattered Clouds